Tracking 31027 objects as of 19-Jul-2025
HD Live streaming from Space Station
objects crossing your sky now

METEOR M2-2

Track METEOR M2-2 now!
10-day predictions
METEOR M2-2 is classified as:


NORAD ID: 44387
Int'l Code: 2019-038A
Perigee: 818.1 km
Apogee: 818.4 km
Inclination: 98.9 °
Period: 101.1 minutes
Semi major axis: 7189 km
RCS: Unknown
Launch date: July 5, 2019
Source: Commonwealth of Independent States (former USSR) (CIS)
Launch site: VOSTOCHNY COSMODROME (VOSTO)

Uplink (MHz):
Downlink (MHz): 137.100/137.900
Beacon (MHz): 1700.000*
Mode: 72K QPSK AHRPT*
Call sign:
Status:

Your satellite tracking list
ATLAS 2A CENTAUR R/B
Track 1 satellite(s)




NASA's NSSDC Master Catalog

Two Line Element Set (TLE):
1 44387U 19038A   25199.91011523  .00000055  00000-0  43487-4 0  9995
2 44387  98.8766 177.9828 0000190 204.3406 155.7763 14.24216918313855
Source of the keplerian elements: AFSPC